Location: Vesunti
(61.5000°N, 22.8333°E)
Time: 02:20:10
(UTC+00:00)

Meteor 2-10 Rocket - Pass Details

Date: 17 February 2020
Orbit: 734 x 884 km, 81.2° (Epoch: 05 April)

Event Time Altitude Azimuth Distance (km) Brightness Sun altitude
Exits shadow 02:46:07 12° 173° (S) 2,237 5.8 -24.4°
Maximum altitude 02:50:55 53° 99° (E) 952 4.2 -23.9°
Drops below altitude 10° 02:55:56 10° 23° (NNE) 2,298 6.5 -23.3°
Sets 02:58:17 0° 19° (NNE) 3,211 7.2 -23.0°
